Adak, AK

11:18 PM HST on February 17, 2018 (GMT -1000)
Adak

Weather History for PADK - January, 2013

Change the Weather History Date:

Sunday, January 27, 2013

  Actual Average Record
Temperature  
Mean Temperature 28 °F -  
Max Temperature 33 °F 37 °F 47 °F (1973)
Min Temperature 23 °F 30 °F 12 °F (2000)
Degree Days  
Heating Degree Days 37    
Moisture  
Dew Point 27 °F    
Average Humidity 79    
Maximum Humidity 100    
Minimum Humidity 59    
Precipitation  
Precipitation 0.01 in - - ()
Sea Level Pressure  
Sea Level Pressure 29.74 in    
Wind  
Wind Speed 20 mph (NE)    
Max Wind Speed 39 mph    
Max Gust Speed 52 mph    
Visibility 10 miles    
Events      
Averages and records for this station are not official NWS values.
T = Trace of Precipitation, MM = Missing Value Source: NWS Daily Summary

Daily Weather History Graph

Daily Weather History Graph

Search for Another Location

Airport or City:

Trip Planner

Search our weather history database for the weather conditions in past years. The results will help you decide how hot, cold, wet, or windy it might be!

Date:

Astronomy

Jan. 27, 2013 Rise Set
Actual Time 9:32 AM HST 6:26 PM HST
Civil Twilight 8:55 AM HST 7:04 PM HST
Nautical Twilight 8:14 AM HST 7:45 PM HST
Astronomical Twilight 7:35 AM HST 8:24 PM HST
Moon 7:50 PM HST (1/27) 9:21 AM HST (1/27)
Length of Visible Light 10h 08m
Length of Day
8h 54m
Waxing Gibbous, 99% of the Moon is Illuminated
Jan 27
Waxing Gibbous
Feb 3
Last Quarter
Feb 9
New
Feb 17
First Quarter
Feb 25
Full

Hourly Weather History & Observations

Time (HST) Temp. Windchill Dew Point Humidity Pressure Visibility Wind Dir Wind Speed Gust Speed Precip Events Conditions
12:16 AM 24.8 °F 15.3 °F 21.2 °F 86% 29.93 in 10.0 mi North 9.2 mph - N/A   Mostly Cloudy
12:36 AM 26.6 °F 20.0 °F 24.8 °F 93% 29.93 in 10.0 mi NNW 5.8 mph - N/A   Partly Cloudy
12:56 AM 23.0 °F 15.8 °F 19.4 °F 86% 29.92 in 10.0 mi North 5.8 mph - N/A   Clear
1:16 AM 26.6 °F - 26.6 °F 100% 29.92 in 10.0 mi Calm Calm - N/A   Clear
1:36 AM 26.6 °F 19.1 °F 19.4 °F 74% 29.91 in 10.0 mi North 6.9 mph - N/A   Scattered Clouds
1:56 AM 26.6 °F 19.1 °F 23.0 °F 86% 29.91 in 10.0 mi NNW 6.9 mph - N/A   Scattered Clouds
2:16 AM 30.2 °F 21.3 °F 30.2 °F 100% 29.91 in 10.0 mi NNE 10.4 mph - N/A   Partly Cloudy
2:36 AM 33.8 °F 23.9 °F 28.4 °F 81% 29.91 in 10.0 mi NE 15.0 mph - N/A   Mostly Cloudy
2:56 AM 32.0 °F 22.5 °F 28.4 °F 87% 29.90 in 10.0 mi North 12.7 mph - N/A   Mostly Cloudy
3:16 AM 33.8 °F 23.9 °F 30.2 °F 87% 29.90 in 10.0 mi NNE 15.0 mph 24.2 mph N/A   Mostly Cloudy
3:36 AM 33.8 °F 24.8 °F 30.2 °F 87% 29.90 in 10.0 mi NNE 12.7 mph 20.7 mph 0.01 in   Overcast
3:56 AM 33.8 °F 23.9 °F 28.4 °F 81% 29.90 in 10.0 mi NNE 15.0 mph - 0.01 in   Mostly Cloudy
4:16 AM 32.0 °F 21.6 °F 26.6 °F 80% 29.89 in 10.0 mi NE 15.0 mph - N/A   Scattered Clouds
4:36 AM 33.8 °F 25.8 °F 30.2 °F 87% 29.88 in 10.0 mi NNE 10.4 mph - N/A   Mostly Cloudy
4:56 AM 33.8 °F 24.3 °F 30.2 °F 87% 29.87 in 10.0 mi NNE 13.8 mph - N/A   Mostly Cloudy
5:16 AM 33.8 °F 24.8 °F 28.4 °F 81% 29.87 in 10.0 mi NNE 12.7 mph - N/A   Partly Cloudy
5:36 AM 33.8 °F 23.5 °F 28.4 °F 81% 29.86 in 10.0 mi NE 16.1 mph - N/A   Scattered Clouds
5:56 AM 35.6 °F 26.6 °F 32.0 °F 87% 29.85 in 10.0 mi NNE 13.8 mph 23.0 mph N/A   Mostly Cloudy
6:16 AM 35.6 °F 24.8 °F 32.0 °F 87% 29.85 in 10.0 mi NE 19.6 mph 23.0 mph N/A   Overcast
6:36 AM 35.6 °F 25.2 °F 30.2 °F 81% 29.84 in 10.0 mi NE 18.4 mph 23.0 mph N/A   Overcast
6:56 AM 35.6 °F 26.2 °F 32.0 °F 87% 29.84 in 10.0 mi NE 15.0 mph - N/A   Overcast
7:16 AM 35.6 °F 24.0 °F 32.0 °F 87% 29.84 in 10.0 mi NE 23.0 mph 32.2 mph N/A   Overcast
7:36 AM 35.6 °F 25.2 °F 30.2 °F 81% 29.83 in 10.0 mi NE 18.4 mph 26.5 mph N/A   Overcast
7:56 AM 35.6 °F 23.4 °F 32.0 °F 87% 29.83 in 10.0 mi NE 25.3 mph 32.2 mph N/A   Overcast
8:16 AM 35.6 °F 22.7 °F 30.2 °F 81% 29.83 in 10.0 mi NE 28.8 mph 34.5 mph N/A   Overcast
8:36 AM 35.6 °F 24.2 °F 30.2 °F 81% 29.83 in 10.0 mi NE 21.9 mph - N/A   Overcast
8:56 AM 35.6 °F 23.7 °F 28.4 °F 75% 29.82 in 10.0 mi ENE 24.2 mph 36.8 mph N/A   Overcast
9:16 AM 35.6 °F 22.5 °F 28.4 °F 75% 29.82 in 10.0 mi NE 29.9 mph 35.7 mph N/A   Overcast
9:36 AM 33.8 °F 19.6 °F 28.4 °F 81% 29.81 in 10.0 mi NE 32.2 mph 39.1 mph N/A   Overcast
9:56 AM 33.8 °F 19.6 °F 28.4 °F 81% 29.81 in 10.0 mi NE 32.2 mph 36.8 mph N/A   Overcast
10:16 AM 35.6 °F 21.7 °F 28.4 °F 75% 29.80 in 10.0 mi NE 34.5 mph 41.4 mph N/A   Overcast
10:36 AM 35.6 °F 22.5 °F 28.4 °F 75% 29.80 in 10.0 mi NE 29.9 mph 38.0 mph N/A   Overcast
10:56 AM 35.6 °F 21.7 °F 26.6 °F 70% 29.78 in 10.0 mi NE 34.5 mph 39.1 mph N/A   Overcast
11:16 AM 35.6 °F 21.9 °F 28.4 °F 75% 29.78 in 10.0 mi NE 33.4 mph 39.1 mph N/A   Overcast
11:36 AM 33.8 °F 19.9 °F 28.4 °F 81% 29.77 in 10.0 mi NE 31.1 mph 42.6 mph N/A   Overcast
11:56 AM 35.6 °F 22.1 °F 26.6 °F 70% 29.77 in 10.0 mi NE 32.2 mph 43.7 mph N/A   Overcast
12:16 PM 33.8 °F 19.9 °F 28.4 °F 81% 29.77 in 10.0 mi NE 31.1 mph 41.4 mph N/A   Mostly Cloudy
12:36 PM 33.8 °F 19.9 °F 26.6 °F 75% 29.77 in 10.0 mi NE 31.1 mph 41.4 mph N/A   Mostly Cloudy
12:56 PM 33.8 °F 19.0 °F 28.4 °F 81% 29.76 in 10.0 mi NE 35.7 mph 42.6 mph N/A   Mostly Cloudy
1:16 PM 33.8 °F 20.8 °F 26.6 °F 75% 29.75 in 10.0 mi NE 26.5 mph 42.6 mph N/A   Mostly Cloudy
1:36 PM 33.8 °F 19.9 °F 26.6 °F 75% 29.75 in 10.0 mi NE 31.1 mph 39.1 mph N/A   Overcast
1:56 PM 33.8 °F 20.3 °F 26.6 °F 75% 29.74 in 9.0 mi NE 28.8 mph 36.8 mph N/A   Overcast
2:16 PM 33.8 °F 20.1 °F 26.6 °F 75% 29.73 in 9.0 mi NE 29.9 mph 40.3 mph N/A   Overcast
2:36 PM 33.8 °F 19.6 °F 26.6 °F 75% 29.72 in 9.0 mi NE 32.2 mph 40.3 mph N/A   Overcast
2:56 PM 33.8 °F 19.9 °F 26.6 °F 75% 29.71 in 8.0 mi NE 31.1 mph 41.4 mph N/A   Overcast
3:16 PM 33.8 °F 19.9 °F 26.6 °F 75% 29.70 in 9.0 mi NE 31.1 mph 39.1 mph N/A   Overcast
3:36 PM 33.8 °F 19.9 °F 26.6 °F 75% 29.69 in 9.0 mi NE 31.1 mph 43.7 mph N/A   Overcast
3:56 PM 33.8 °F 20.3 °F 26.6 °F 75% 29.68 in 9.0 mi NE 28.8 mph 48.3 mph N/A   Overcast
4:16 PM 33.8 °F 19.9 °F 26.6 °F 75% 29.67 in 9.0 mi NE 31.1 mph 43.7 mph N/A   Overcast
4:36 PM 33.8 °F 19.2 °F 26.6 °F 75% 29.66 in 9.0 mi NE 34.5 mph 42.6 mph N/A   Overcast
4:56 PM 33.8 °F 19.6 °F 24.8 °F 70% 29.65 in 9.0 mi NE 32.2 mph 42.6 mph N/A   Overcast
5:16 PM 33.8 °F 19.2 °F 24.8 °F 70% 29.65 in 9.0 mi NE 34.5 mph 43.7 mph N/A   Overcast
5:36 PM 33.8 °F 18.6 °F 26.6 °F 75% 29.64 in 8.0 mi NE 38.0 mph 46.0 mph N/A   Overcast
5:56 PM 33.8 °F 20.1 °F 24.8 °F 70% 29.64 in 9.0 mi NE 29.9 mph 42.6 mph N/A   Overcast
6:36 PM 32.0 °F 17.2 °F 24.8 °F 75% 29.61 in 8.0 mi NE 32.2 mph 41.4 mph N/A   Overcast
6:56 PM 32.0 °F 16.7 °F 24.8 °F 75% 29.60 in 9.0 mi NE 34.5 mph 44.9 mph N/A   Overcast
7:16 PM 32.0 °F 17.0 °F 24.8 °F 75% 29.59 in 10.0 mi NE 33.4 mph 46.0 mph N/A   Overcast
7:36 PM 32.0 °F 17.4 °F 24.8 °F 75% 29.58 in 10.0 mi NNE 31.1 mph 46.0 mph N/A   Overcast
7:56 PM 32.0 °F 17.2 °F 23.0 °F 69% 29.58 in 10.0 mi NE 32.2 mph 41.4 mph N/A   Overcast
8:16 PM 32.0 °F 16.2 °F 24.8 °F 75% 29.57 in 10.0 mi NE 38.0 mph 47.2 mph N/A   Overcast
8:36 PM 32.0 °F 17.4 °F 24.8 °F 75% 29.56 in 10.0 mi NE 31.1 mph 44.9 mph N/A   Overcast
8:56 PM 32.0 °F 16.2 °F 24.8 °F 75% 29.55 in 10.0 mi NE 38.0 mph 46.0 mph N/A   Overcast
9:36 PM 32.0 °F 16.7 °F 24.8 °F 75% 29.53 in 10.0 mi NE 34.5 mph 44.9 mph N/A   Overcast
9:56 PM 32.0 °F 16.0 °F 24.8 °F 75% 29.53 in 9.0 mi NE 39.1 mph 47.2 mph N/A   Overcast
10:16 PM 32.0 °F 16.7 °F 23.0 °F 69% 29.51 in 9.0 mi NE 34.5 mph 48.3 mph N/A   Overcast
10:36 PM 30.2 °F 14.9 °F 23.0 °F 75% 29.50 in 10.0 mi NE 31.1 mph 49.5 mph N/A   Overcast
10:56 PM 32.0 °F 16.3 °F 24.8 °F 75% 29.49 in 9.0 mi NE 36.8 mph 46.0 mph N/A   Overcast
11:16 PM 30.2 °F 13.9 °F 23.0 °F 75% 29.47 in 10.0 mi NE 36.8 mph 47.2 mph N/A   Overcast
11:36 PM 32.0 °F 16.0 °F 24.8 °F 75% 29.46 in 10.0 mi NE 39.1 mph 51.8 mph N/A   Overcast
11:56 PM 32.0 °F 16.3 °F 24.8 °F 75% 29.45 in 9.0 mi NE 36.8 mph 49.5 mph N/A   Overcast